New York JFK, NY

11:45 PM EST on December 12, 2017 (GMT -0500)
Kennedy International

Weather History for KJFK - August, 2012

Change the Weather History Date:

Thursday, August 23, 2012

  Actual Average Record
Temperature  
Mean Temperature 75 °F 74 °F  
Max Temperature 82 °F 81 °F 91 °F (1978)
Min Temperature 68 °F 67 °F 57 °F (1994)
Degree Days  
Heating Degree Days 0 0  
Month to date heating degree days 0 0  
Since 1 June heating degree days 18 21  
Since 1 July heating degree days 0 0  
Cooling Degree Days 10 9  
Month to date cooling degree days 282 239  
Year to date cooling degree days 978 794  
Since 1 June cooling degree days 905 759  
Growing Degree Days 25 (Base 50)    
Moisture  
Dew Point 66 °F    
Average Humidity 73    
Maximum Humidity 87    
Minimum Humidity 58    
Precipitation  
Precipitation 0.00 in 0.11 in 1.52 in (1970)
Month to date precipitation 3.41 2.83  
Year to date precipitation 26.46 28.11  
Snow  
Snow 0.00 in 0.00 in - ()
Month to date snowfall 0.0 0.0  
Since 1 July snowfall 0.0 0.0  
Snow Depth 0.00 in    
Sea Level Pressure  
Sea Level Pressure 30.15 in    
Wind  
Wind Speed 8 mph (SSW)    
Max Wind Speed 16 mph    
Max Gust Speed 20 mph    
Visibility 10 miles    
Events      
T = Trace of Precipitation, MM = Missing Value Source: NWS Daily Summary

Daily Weather History Graph

Daily Weather History Graph

Search for Another Location

Airport or City:

Trip Planner

Search our weather history database for the weather conditions in past years. The results will help you decide how hot, cold, wet, or windy it might be!

Date:

Astronomy

Aug. 23, 2012 Rise Set
Actual Time 6:13 AM EDT 7:40 PM EDT
Civil Twilight 5:45 AM EDT 8:09 PM EDT
Nautical Twilight 5:10 AM EDT 8:43 PM EDT
Astronomical Twilight 4:34 AM EDT 9:19 PM EDT
Moon 1:00 PM EDT (8/23) 11:04 PM EDT (8/23)
Length of Visible Light 14h 23m
Length of Day
13h 26m
Waxing Crescent, 40% of the Moon is Illuminated
Aug 23
Waxing Crescent
Aug 24
First Quarter
Aug 31
Full
Sep 8
Last Quarter
Sep 15
New

Hourly Weather History & Observations

Time (EDT) Temp. Heat Index Dew Point Humidity Pressure Visibility Wind Dir Wind Speed Gust Speed Precip Events Conditions
12:51 AM 70.0 °F - 64.9 °F 84% 30.15 in 10.0 mi SW 4.6 mph - N/A   Partly Cloudy
1:51 AM 70.0 °F - 64.9 °F 84% 30.15 in 10.0 mi WSW 3.5 mph - N/A   Partly Cloudy
2:51 AM 70.0 °F - 64.0 °F 81% 30.15 in 10.0 mi WSW 3.5 mph - N/A   Partly Cloudy
3:51 AM 70.0 °F - 64.9 °F 84% 30.15 in 10.0 mi West 4.6 mph - N/A   Partly Cloudy
4:51 AM 68.0 °F - 64.0 °F 87% 30.15 in 10.0 mi WSW 5.8 mph - N/A   Scattered Clouds
5:51 AM 68.0 °F - 64.0 °F 87% 30.15 in 10.0 mi SW 5.8 mph - N/A   Scattered Clouds
6:51 AM 69.1 °F - 64.9 °F 87% 30.17 in 9.0 mi SSW 3.5 mph - N/A   Mostly Cloudy
7:51 AM 72.0 °F - 66.9 °F 84% 30.17 in 9.0 mi WSW 3.5 mph - N/A   Mostly Cloudy
8:51 AM 73.0 °F - 66.0 °F 79% 30.17 in 9.0 mi SW 5.8 mph - N/A   Mostly Cloudy
9:51 AM 75.0 °F - 66.9 °F 76% 30.18 in 9.0 mi SW 3.5 mph - N/A   Mostly Cloudy
10:51 AM 78.1 °F - 66.9 °F 68% 30.18 in 8.0 mi Variable 3.5 mph - N/A   Mostly Cloudy
11:51 AM 81.0 °F 82.7 °F 64.9 °F 58% 30.17 in 10.0 mi South 6.9 mph - N/A   Mostly Cloudy
12:51 PM 80.1 °F 82.1 °F 66.0 °F 62% 30.16 in 10.0 mi South 10.4 mph - N/A   Mostly Cloudy
1:51 PM 81.0 °F 83.3 °F 66.9 °F 62% 30.16 in 10.0 mi South 15.0 mph - N/A   Mostly Cloudy
2:51 PM 81.0 °F 83.0 °F 66.0 °F 60% 30.14 in 10.0 mi South 12.7 mph - N/A   Mostly Cloudy
3:51 PM 81.0 °F 82.5 °F 64.0 °F 56% 30.14 in 10.0 mi South 12.7 mph - N/A   Mostly Cloudy
4:51 PM 80.1 °F 81.7 °F 64.0 °F 58% 30.12 in 10.0 mi South 13.8 mph - N/A   Mostly Cloudy
5:51 PM 79.0 °F - 64.9 °F 62% 30.12 in 10.0 mi South 12.7 mph - N/A   Scattered Clouds
6:51 PM 77.0 °F - 68.0 °F 74% 30.12 in 10.0 mi South 13.8 mph - N/A   Scattered Clouds
7:51 PM 75.0 °F - 66.0 °F 73% 30.13 in 10.0 mi SSW 11.5 mph - N/A   Mostly Cloudy
8:51 PM 73.9 °F - 68.0 °F 82% 30.14 in 10.0 mi SSW 10.4 mph - N/A   Mostly Cloudy
9:51 PM 73.9 °F - 66.0 °F 76% 30.14 in 10.0 mi SSW 8.1 mph - N/A   Mostly Cloudy
10:51 PM 73.0 °F - 66.9 °F 81% 30.15 in 10.0 mi SSW 8.1 mph - N/A   Mostly Cloudy
11:51 PM 73.0 °F - 66.0 °F 79% 30.15 in 10.0 mi SSW 6.9 mph - N/A   Mostly Cloudy